Flag for Switzerland Weather past 2 weeks in Bern, Bern, Switzerland

34 °F


Feels Like: 30 °F
Forecast: 18 / 33 °F
Wind: 5 mph from Northwest

Location: Bern / Belp

Current Time: Nov 26, 2015 at 6:43:35 AM

Latest Report: Nov 26, 2015 at 5:50 AM

Visibility: N/A

Pressure: 29.86 "Hg (27.94 "Hg at 533m altitude)

Humidity: 100%

Dew point: 34 °F

Location of BernLocation

Historic Weather in Bern — Graph


Bern temperature yesterday

Maximum temperature yesterday: 36 °F (at 12:20 PM)
Minimum temperature yesterday: 32 °F (at 12:20 AM)
Average temperature yesterday: 34 °F

Past Weeks' High & Low Weather Summary

High63 °F (Nov 15, 2:20 PM)100% (Nov 11, 4:20 AM)30.48 "Hg (Nov 11, 4:20 AM)
Low19 °F (Nov 24, 4:50 AM)51% (Nov 19, 5:20 PM)29.45 "Hg (Nov 21, 12:50 PM)
Average43 °F88%30.12 "Hg
* Reported Nov 11 4:20 AM — Nov 26 4:50 AM, Bern, Weather by CustomWeather, © 2015

Note: Actual official high and low records may vary slightly from our data, if they occured in-between our weather recording intervals... More about our weather records


Bern weather history for previous 24 hours

Time TempWeatherWind HumidityBarometerVisibility
4:50 AM
Thu, Nov 26
34 °FSnow flurries. Partly cloudy.5 mph100%29.83 "Hg5 mi
4:20 AM34 °FFog.3 mph100%29.83 "Hg2 mi
3:50 AM34 °FPassing clouds.1 mph100%29.80 "Hg3 mi
3:20 AM34 °FSnow flurries. Passing clouds.1 mph100%29.80 "Hg3 mi
2:50 AM34 °FSnow flurries. Partly cloudy.2 mph100%29.80 "Hg3 mi
2:20 AM34 °FFog.1 mph100%29.77 "Hg2 mi
1:20 AM34 °FLight snow. Passing clouds.1 mph100%29.77 "Hg4 mi
12:50 AM34 °FLight snow. Partly cloudy.2 mph100%29.74 "Hg3 mi
12:20 AM34 °FLight snow. Mostly cloudy.2 mph100%29.74 "Hg2 mi
11:50 PM
Wed, Nov 25
34 °FLight snow. Low clouds.2 mph100%29.74 "Hg2 mi
11:20 PM34 °FLight snow. Low clouds.2 mph100%29.74 "Hg2 mi
10:50 PM34 °FLight snow. Partly cloudy.3 mph100%29.74 "Hg3 mi
10:20 PM34 °FLight snow. Partly cloudy.2 mph100%29.74 "Hg2 mi
9:50 PM34 °FPassing clouds.3 mph100%29.77 "Hg4 mi
9:20 PM34 °FPassing clouds.3 mph100%29.77 "Hg5 mi
8:50 PM34 °FLow clouds.1 mph100%29.77 "Hg3 mi
8:20 PM34 °FPartly cloudy.2 mph100%29.77 "Hg5 mi
7:50 PM36 °FPartly cloudy.2 mph100%29.77 "HgN/A
7:20 PM34 °FPassing clouds.5 mph100%29.77 "Hg5 mi
6:50 PM34 °FPassing clouds.2 mph100%29.77 "Hg6 mi
6:20 PM34 °FSnow flurries. Partly cloudy.2 mph100%29.77 "Hg4 mi
5:50 PM34 °FDrizzle. Mostly cloudy.1 mph100%29.77 "Hg5 mi
5:20 PM34 °FPartly cloudy.5 mph100%29.77 "Hg5 mi
4:50 PM36 °FPartly cloudy.2 mph100%29.77 "Hg5 mi
4:20 PM36 °FBroken clouds.1 mph100%29.77 "Hg5 mi
3:50 PM36 °FBroken clouds.2 mph100%29.77 "Hg6 mi
3:20 PM36 °FBroken clouds.3 mph100%29.77 "Hg6 mi
2:50 PM36 °FBroken clouds.2 mph100%29.77 "Hg5 mi
2:20 PM36 °FLight rain. Broken clouds.2 mph100%29.77 "Hg2 mi
1:50 PM34 °FLight snow. Broken clouds.2 mph100%29.77 "Hg2 mi
1:20 PM34 °FLight snow. Broken clouds.2 mph100%29.80 "Hg2 mi
12:50 PM36 °FRain. Broken clouds.2 mph100%29.80 "Hg2 mi
12:20 PM36 °FLight rain. Fog.2 mph100%29.80 "Hg2 mi
11:50 AM34 °FSprinkles. More clouds than sun.No wind100%29.83 "Hg2 mi
11:20 AM34 °FDrizzle. Fog.1 mph100%29.83 "Hg2 mi
10:50 AM34 °FFog.No wind100%29.86 "Hg2 mi
10:20 AM34 °FFog.2 mph100%29.86 "Hg2 mi
9:50 AM34 °FFog.1 mph100%29.86 "Hg2 mi
9:20 AM34 °FFog.2 mph100%29.86 "Hg1 mi
8:50 AM32 °FIce fog.2 mph100%29.86 "Hg1 mi
8:20 AM32 °FLight snow. Cloudy.No wind100%29.86 "Hg2 mi
7:50 AM32 °FSnow. Dense fog.2 mph100%29.86 "Hg1 mi
7:20 AM32 °FLight snow. Partly cloudy.2 mph100%29.89 "Hg1 mi
6:50 AM32 °FSnow. Partly cloudy.No wind100%29.89 "Hg1 mi
Weather by CustomWeather, © 2015

See weather overviewHow to use our weather pages